TimeEDT,TemperatureF,Dew PointF,Humidity,Sea Level PressureIn,VisibilityMPH,Wind Direction,Wind SpeedMPH,Gust SpeedMPH,PrecipitationIn,Events,Conditions,WindDirDegrees,DateUTC
12:15 AM,71.4,69.1,92,29.70,5.0,Calm,Calm,-,N/A,,Clear,0,2013-06-28 04:15:00
12:35 AM,71.8,68.9,91,29.70,7.0,Calm,Calm,-,N/A,,Clear,0,2013-06-28 04:35:00
12:55 AM,71.6,68.9,91,29.70,7.0,WSW,3.5,-,N/A,,Clear,240,2013-06-28 04:55:00
1:15 AM,71.6,68.9,91,29.70,7.0,WSW,3.5,-,N/A,,Clear,250,2013-06-28 05:15:00
1:35 AM,71.8,68.5,89,29.69,10.0,SW,3.5,-,N/A,,Clear,230,2013-06-28 05:35:00
1:55 AM,71.6,68.2,89,29.68,10.0,Calm,Calm,-,N/A,,Clear,0,2013-06-28 05:55:00
2:15 AM,71.6,68.0,88,29.68,10.0,Calm,Calm,-,N/A,,Scattered Clouds,0,2013-06-28 06:15:00
2:35 AM,71.1,68.0,90,29.68,7.0,Calm,Calm,-,N/A,,Mostly Cloudy,0,2013-06-28 06:35:00
2:55 AM,70.9,67.8,90,29.67,10.0,Calm,Calm,-,N/A,Thunderstorm,Scattered Clouds,0,2013-06-28 06:55:00
3:15 AM,71.6,67.8,88,29.67,10.0,WSW,9.2,-,N/A,Rain-Thunderstorm,Light Thunderstorms and Rain,240,2013-06-28 07:15:00
3:35 AM,71.6,67.5,87,29.67,10.0,WSW,13.8,-,N/A,Thunderstorm,Scattered Clouds,240,2013-06-28 07:35:00
3:55 AM,71.1,67.1,87,29.67,10.0,SW,6.9,16.1,N/A,Thunderstorm,Thunderstorm,230,2013-06-28 07:55:00
4:15 AM,70.3,66.2,87,29.67,10.0,SW,4.6,-,N/A,,Mostly Cloudy,220,2013-06-28 08:15:00
4:35 AM,69.6,65.3,86,29.66,10.0,Calm,Calm,-,N/A,,Mostly Cloudy,0,2013-06-28 08:35:00
4:55 AM,68.5,63.7,84,29.66,10.0,Calm,Calm,-,N/A,,Scattered Clouds,0,2013-06-28 08:55:00
5:15 AM,67.5,63.5,87,29.66,10.0,Calm,Calm,-,N/A,,Scattered Clouds,0,2013-06-28 09:15:00
5:35 AM,66.4,63.1,89,29.65,10.0,SSW,4.6,-,N/A,,Scattered Clouds,200,2013-06-28 09:35:00
5:55 AM,65.8,63.1,91,29.66,10.0,SSW,4.6,-,N/A,,Scattered Clouds,210,2013-06-28 09:55:00
6:15 AM,65.3,63.0,92,29.66,10.0,Calm,Calm,-,N/A,,Scattered Clouds,0,2013-06-28 10:15:00
6:35 AM,65.3,63.0,92,29.66,10.0,Calm,Calm,-,N/A,,Clear,0,2013-06-28 10:35:00
6:55 AM,66.2,63.5,91,29.65,10.0,Calm,Calm,-,N/A,,Clear,0,2013-06-28 10:55:00
7:15 AM,67.5,64.6,90,29.65,10.0,Calm,Calm,-,N/A,,Clear,0,2013-06-28 11:15:00
7:35 AM,69.4,65.8,88,29.65,10.0,WSW,5.8,-,N/A,,Clear,250,2013-06-28 11:35:00
7:55 AM,71.1,67.1,87,29.64,10.0,WSW,8.1,-,N/A,,Clear,240,2013-06-28 11:55:00
8:35 AM,73.4,68.2,84,29.64,10.0,WSW,8.1,-,N/A,,Clear,250,2013-06-28 12:35:00
8:55 AM,73.8,68.2,83,29.64,10.0,West,9.2,17.3,N/A,,Mostly Cloudy,260,2013-06-28 12:55:00
9:15 AM,74.5,68.5,82,29.64,10.0,West,9.2,-,N/A,,Overcast,270,2013-06-28 13:15:00
9:35 AM,75.0,68.7,81,29.64,10.0,WSW,10.4,-,N/A,,Overcast,250,2013-06-28 13:35:00
9:55 AM,74.8,68.5,81,29.64,10.0,West,6.9,-,N/A,,Overcast,280,2013-06-28 13:55:00
10:15 AM,75.2,68.4,79,29.64,10.0,West,10.4,-,N/A,,Overcast,270,2013-06-28 14:15:00
10:35 AM,76.1,68.9,78,29.64,10.0,West,9.2,-,N/A,,Overcast,270,2013-06-28 14:35:00
10:55 AM,76.5,68.2,75,29.64,10.0,West,9.2,-,N/A,,Overcast,260,2013-06-28 14:55:00
11:15 AM,78.1,68.0,71,29.64,10.0,West,12.7,19.6,N/A,,Mostly Cloudy,270,2013-06-28 15:15:00
11:35 AM,79.0,67.6,68,29.63,10.0,West,11.5,-,N/A,,Scattered Clouds,280,2013-06-28 15:35:00
11:55 AM,78.8,67.6,68,29.64,10.0,West,12.7,-,N/A,,Mostly Cloudy,260,2013-06-28 15:55:00
12:15 PM,80.6,67.6,65,29.63,10.0,West,11.5,-,N/A,,Mostly Cloudy,270,2013-06-28 16:15:00
12:35 PM,81.5,66.7,61,29.62,10.0,West,15.0,19.6,N/A,,Scattered Clouds,280,2013-06-28 16:35:00
12:55 PM,82.0,64.8,56,29.62,10.0,WSW,16.1,21.9,N/A,,Scattered Clouds,250,2013-06-28 16:55:00
1:15 PM,82.4,63.9,53,29.61,10.0,West,13.8,23.0,N/A,,Scattered Clouds,270,2013-06-28 17:15:00
1:35 PM,83.5,64.2,52,29.60,10.0,West,13.8,20.7,N/A,,Scattered Clouds,280,2013-06-28 17:35:00
1:55 PM,83.1,62.2,49,29.59,10.0,West,11.5,25.3,N/A,,Scattered Clouds,270,2013-06-28 17:55:00
2:15 PM,83.3,62.4,49,29.58,10.0,West,16.1,20.7,N/A,,Scattered Clouds,260,2013-06-28 18:15:00
2:35 PM,77.2,64.8,65,29.60,7.0,WNW,13.8,20.7,N/A,Rain,Heavy Rain,300,2013-06-28 18:35:00
2:55 PM,67.1,62.1,84,29.63,5.0,North,6.9,-,N/A,Rain,Heavy Rain,360,2013-06-28 18:55:00
3:15 PM,66.9,62.8,87,29.62,4.0,Calm,Calm,-,N/A,Rain,Heavy Rain,0,2013-06-28 19:15:00
3:35 PM,69.1,64.0,84,29.59,10.0,NNW,4.6,-,N/A,Rain,Light Rain,340,2013-06-28 19:35:00
3:55 PM,72.9,64.9,76,29.59,10.0,Calm,Calm,-,N/A,,Mostly Cloudy,0,2013-06-28 19:55:00
4:15 PM,74.8,64.9,71,29.59,10.0,Calm,Calm,-,N/A,,Scattered Clouds,0,2013-06-28 20:15:00
4:35 PM,77.2,65.3,67,29.59,10.0,NNW,3.5,-,N/A,,Clear,330,2013-06-28 20:35:00
4:55 PM,78.6,65.1,63,29.58,10.0,WNW,8.1,-,N/A,,Clear,300,2013-06-28 20:55:00
5:15 PM,78.8,65.3,63,29.58,10.0,WNW,8.1,-,N/A,,Mostly Cloudy,300,2013-06-28 21:15:00
5:35 PM,77.7,64.9,65,29.59,10.0,NW,4.6,-,N/A,,Scattered Clouds,310,2013-06-28 21:35:00
5:55 PM,78.8,63.9,60,29.58,10.0,North,3.5,-,N/A,,Mostly Cloudy,350,2013-06-28 21:55:00
6:15 PM,79.3,61.9,55,29.57,10.0,WNW,3.5,-,N/A,,Scattered Clouds,300,2013-06-28 22:15:00
6:35 PM,77.9,63.3,61,29.57,10.0,Calm,Calm,-,N/A,,Clear,0,2013-06-28 22:35:00
6:55 PM,78.6,64.6,62,29.57,10.0,Calm,Calm,-,N/A,,Clear,0,2013-06-28 22:55:00
7:15 PM,69.1,60.1,73,29.59,10.0,NNW,6.9,31.1,N/A,,Mostly Cloudy,330,2013-06-28 23:15:00
7:35 PM,69.8,60.3,72,29.59,10.0,Calm,Calm,-,N/A,,Mostly Cloudy,0,2013-06-28 23:35:00
7:55 PM,69.1,61.0,75,29.60,10.0,Calm,Calm,-,N/A,,Mostly Cloudy,0,2013-06-28 23:55:00
8:15 PM,69.8,60.6,73,29.61,10.0,Calm,Calm,-,N/A,,Scattered Clouds,0,2013-06-29 00:15:00
8:35 PM,69.1,60.4,74,29.62,10.0,West,4.6,-,N/A,,Clear,270,2013-06-29 00:35:00
8:55 PM,68.0,60.8,78,29.62,10.0,WSW,4.6,-,N/A,,Clear,250,2013-06-29 00:55:00
9:15 PM,67.3,60.3,78,29.62,10.0,Calm,Calm,-,N/A,,Scattered Clouds,0,2013-06-29 01:15:00
9:35 PM,67.3,61.0,80,29.62,10.0,Calm,Calm,-,N/A,,Scattered Clouds,0,2013-06-29 01:35:00
9:55 PM,67.6,60.4,78,29.63,10.0,Calm,Calm,-,N/A,,Clear,0,2013-06-29 01:55:00
10:15 PM,66.4,61.0,83,29.64,10.0,Calm,Calm,-,N/A,,Scattered Clouds,0,2013-06-29 02:15:00
10:35 PM,66.4,61.3,84,29.64,10.0,Calm,Calm,-,N/A,,Scattered Clouds,0,2013-06-29 02:35:00
10:55 PM,65.7,61.9,88,29.64,10.0,Calm,Calm,-,N/A,,Clear,0,2013-06-29 02:55:00
11:15 PM,65.3,61.7,88,29.63,10.0,Calm,Calm,-,N/A,,Clear,0,2013-06-29 03:15:00
11:35 PM,64.2,61.2,90,29.63,10.0,Calm,Calm,-,N/A,,Clear,0,2013-06-29 03:35:00
11:55 PM,63.5,60.8,91,29.63,10.0,Calm,Calm,-,N/A,,Clear,0,2013-06-29 03:55:00